| time (UTC) | temp F | wind direction | speed knots | gust knots | rain 1hr in | rain 24hr in | rain mn in | humidity % | barometer mb |
| 20260504030059 | 57 | 239 | 2.6 | 8.7 | 0.00 | 0.57 | 0.55 | 91 | 1013.7 |
| 20260504024606 | 57 | 229 | 2.6 | 8.7 | 0.00 | 0.57 | 0.55 | 92 | 1013.8 |
| 20260504023055 | 57 | 312 | 0.9 | 7.0 | 0.06 | 0.57 | 0.55 | 92 | 1014.2 |
| 20260504021553 | 57 | 247 | 0.9 | 5.2 | 0.07 | 0.57 | 0.55 | 92 | 1014.4 |
| 20260504020051 | 57 | 289 | 1.7 | 4.3 | 0.09 | 0.57 | 0.55 | 92 | 1014.8 |
| 20260504014552 | 57 | 261 | 1.7 | 7.8 | 0.09 | 0.57 | 0.55 | 92 | 1014.7 |
| 20260504013051 | 57 | 260 | 2.6 | 8.7 | 0.03 | 0.53 | 0.50 | 92 | 1015.2 |
| 20260504011550 | 58 | 337 | 2.6 | 8.7 | 0.04 | 0.51 | 0.48 | 91 | 1015.1 |
| 20260504010053 | 59 | 310 | 3.5 | 9.6 | 0.03 | 0.50 | 0.46 | 91 | 1015.2 |
| 20260504004543 | 58 | 260 | 2.6 | 9.6 | 0.03 | 0.50 | 0.46 | 91 | 1015.3 |
| 20260504003042 | 58 | 324 | 2.6 | 9.6 | 0.03 | 0.50 | 0.46 | 91 | 1015.4 |
| 20260504001600 | 59 | 303 | 3.5 | 9.6 | 0.00 | 0.46 | 0.43 | 90 | 1015.5 |
| 20260503234536 | 59 | 293 | 2.6 | 10.4 | 0.00 | 0.46 | 0.43 | 91 | 1015.3 |
| 20260503233034 | 59 | 287 | 4.3 | 14.8 | 0.01 | 0.46 | 0.43 | 91 | 1015.5 |
| 20260503231532 | 59 | 313 | 6.1 | 12.2 | 0.09 | 0.46 | 0.43 | 91 | 1015.6 |
| 20260503230036 | 58 | 289 | 3.5 | 11.3 | 0.14 | 0.46 | 0.43 | 92 | 1015.5 |
| 20260503224530 | 58 | 17 | 1.7 | 7.8 | 0.14 | 0.46 | 0.43 | 92 | 1015.5 |
| 20260503223029 | 58 | 299 | 3.5 | 13.0 | 0.17 | 0.45 | 0.42 | 92 | 1015.4 |
| 20260503221532 | 58 | 332 | 4.3 | 11.3 | 0.09 | 0.36 | 0.33 | 92 | 1015.5 |
| 20260503220027 | 58 | 301 | 3.5 | 7.8 | 0.05 | 0.32 | 0.28 | 92 | 1015.5 |
| 20260503071524 | 63 | 238 | 0.9 | 0.0 | 0.00 | 0.00 | 0.02 | 79 | 1017.1 |
| 20260503054506 | 66 | 194 | 0.0 | 0.0 | 0.00 | 0.02 | 0.02 | 73 | 1017.4 |
| 20260503053009 | 66 | 194 | 0.0 | 0.9 | 0.00 | 0.02 | 0.02 | 71 | 1017.5 |
| 20260503051507 | 67 | 220 | 0.0 | 0.9 | 0.00 | 0.02 | 0.02 | 68 | 1017.5 |
| 20260503050003 | 68 | 209 | 0.0 | 3.5 | 0.00 | 0.02 | 0.02 | 66 | 1017.7 |
| 20260503044501 | 67 | 211 | 0.9 | 4.3 | 0.00 | 0.02 | 0.02 | 69 | 1017.8 |
| 20260503043100 | 67 | 282 | 0.0 | 2.6 | 0.00 | 0.02 | 0.02 | 68 | 1018.0 |
| 20260503041559 | 68 | 256 | 2.6 | 7.8 | 0.00 | 0.02 | 0.02 | 66 | 1017.9 |
| 20260503034558 | 67 | 19 | 0.0 | 1.7 | 0.00 | 0.02 | 0.02 | 70 | 1018.0 |
| 20260503033050 | 66 | 312 | 0.0 | 2.6 | 0.00 | 0.02 | 0.02 | 71 | 1018.4 |
| 20260503031547 | 65 | 258 | 0.0 | 0.0 | 0.00 | 0.02 | 0.02 | 74 | 1018.7 |